BAW9VA EGKK-TLPL

Flight info

Callsign BAW9VA
Flight time N/A
Altitude 38000
Route IMVUR N63 SAM N19 ADKIK DCT JOZMA DCT LULOX/M082F380 DCT SOMAX DCT 49N020W 45N030W 41N040W 38N045W 33N050W 25N055W DCT CITRS/N0476F380 DCT 16N060W DCT FOF UA324 BNE
Aircraft B772/H-SDE2E3FGHIJ5LORVWXY/LB1D1

Departure

Time N/A
Airport London Gatwick Airport (EGKK)

Arrival

Time 2026-05-03 22:30
Airport Hewanorra International Airport (TLPL)
Time Latitude Longitude Altitude Speed Heading
2026-05-03 21:28 19.50418 -56.75308 40123 ft 496 kts 221°
2026-05-03 21:28 19.44981 -56.79867 40121 ft 500 kts 221°
2026-05-03 21:29 19.39506 -56.84454 40118 ft 504 kts 221°
2026-05-03 21:29 19.33994 -56.89066 40117 ft 506 kts 221°
2026-05-03 21:30 19.28453 -56.93699 40113 ft 509 kts 221°
2026-05-03 21:30 19.22886 -56.98350 40116 ft 510 kts 221°
2026-05-03 21:31 19.17306 -57.03007 40107 ft 512 kts 221°
2026-05-03 21:31 19.11712 -57.07672 40107 ft 512 kts 221°
2026-05-03 21:32 19.06115 -57.12336 40109 ft 513 kts 221°
2026-05-03 21:32 19.00506 -57.17005 40106 ft 513 kts 221°
2026-05-03 21:33 18.94902 -57.21666 40101 ft 512 kts 221°
2026-05-03 21:33 18.89306 -57.26316 40104 ft 512 kts 221°
2026-05-03 21:34 18.83721 -57.30953 40101 ft 511 kts 221°
2026-05-03 21:34 18.78169 -57.35559 40098 ft 510 kts 221°
2026-05-03 21:35 18.72600 -57.40175 40099 ft 509 kts 221°
2026-05-03 21:35 18.67029 -57.44789 40100 ft 509 kts 221°
2026-05-03 21:36 18.61466 -57.49392 40097 ft 508 kts 221°
2026-05-03 21:36 18.55901 -57.53993 40096 ft 508 kts 221°
2026-05-03 21:37 18.50341 -57.58586 40093 ft 508 kts 221°
2026-05-03 21:37 18.44780 -57.63176 40095 ft 508 kts 221°
2026-05-03 21:38 18.39221 -57.67760 40090 ft 508 kts 221°
2026-05-03 21:38 18.33652 -57.72349 40090 ft 508 kts 221°
2026-05-03 21:39 18.28087 -57.76931 40091 ft 508 kts 221°
2026-05-03 21:39 18.22523 -57.81507 40089 ft 508 kts 221°
2026-05-03 21:40 18.16950 -57.86088 40090 ft 508 kts 221°
2026-05-03 21:40 18.11380 -57.90663 40086 ft 508 kts 221°
2026-05-03 21:41 18.05806 -57.95238 40086 ft 508 kts 221°
2026-05-03 21:41 18.00240 -57.99825 40090 ft 508 kts 223°
2026-05-03 21:42 17.95109 -58.04819 40085 ft 505 kts 227°
2026-05-03 21:42 17.90061 -58.10014 40090 ft 505 kts 227°
2026-05-03 21:43 17.85062 -58.15141 40085 ft 506 kts 227°
2026-05-03 21:43 17.80010 -58.20276 40082 ft 506 kts 227°
2026-05-03 21:44 17.74942 -58.25403 40083 ft 506 kts 227°
2026-05-03 21:44 17.69872 -58.30526 40084 ft 506 kts 227°
2026-05-03 21:45 17.64805 -58.35646 40077 ft 506 kts 227°
2026-05-03 21:45 17.59733 -58.40766 40078 ft 506 kts 227°
2026-05-03 21:46 17.54662 -58.45883 40077 ft 506 kts 227°
2026-05-03 21:46 17.49595 -58.50991 40078 ft 506 kts 227°
2026-05-03 21:47 17.44521 -58.56102 40075 ft 506 kts 227°
2026-05-03 21:47 17.39450 -58.61205 40077 ft 506 kts 227°
2026-05-03 21:48 17.34382 -58.66302 40075 ft 505 kts 227°
2026-05-03 21:48 17.29310 -58.71398 40076 ft 505 kts 227°
2026-05-03 21:49 17.24239 -58.76489 40074 ft 505 kts 227°
2026-05-03 21:49 17.19169 -58.81575 40074 ft 505 kts 227°
2026-05-03 21:50 17.14105 -58.86651 40070 ft 505 kts 227°
2026-05-03 21:50 17.09029 -58.91736 40068 ft 505 kts 227°
2026-05-03 21:51 17.03994 -58.96775 40066 ft 505 kts 226°
2026-05-03 21:51 16.98922 -59.01847 40068 ft 505 kts 226°
2026-05-03 21:52 16.93850 -59.06915 40067 ft 505 kts 226°
2026-05-03 21:52 16.88780 -59.11977 40068 ft 504 kts 226°
2026-05-03 21:53 16.83704 -59.17042 40064 ft 504 kts 226°
2026-05-03 21:53 16.78632 -59.22098 40062 ft 504 kts 226°
2026-05-03 21:54 16.73557 -59.27153 40063 ft 504 kts 226°
2026-05-03 21:54 16.68482 -59.32205 40062 ft 504 kts 226°
2026-05-03 21:55 16.63407 -59.37251 40060 ft 504 kts 226°
2026-05-03 21:55 16.58335 -59.42292 40062 ft 504 kts 226°
2026-05-03 21:56 16.53260 -59.47332 40057 ft 504 kts 226°
2026-05-03 21:56 16.48188 -59.52365 40057 ft 504 kts 226°
2026-05-03 21:57 16.43115 -59.57396 40061 ft 504 kts 226°
2026-05-03 21:57 16.38040 -59.62424 40056 ft 503 kts 226°
2026-05-03 21:58 16.32970 -59.67444 40056 ft 503 kts 226°
2026-05-03 21:58 16.27891 -59.72468 40057 ft 503 kts 226°
2026-05-03 21:59 16.22816 -59.77486 40055 ft 503 kts 226°
2026-05-03 21:59 16.17740 -59.82500 40050 ft 503 kts 226°
2026-05-03 22:00 16.12692 -59.87484 40049 ft 503 kts 226°
2026-05-03 22:00 16.07618 -59.92489 40051 ft 503 kts 226°
2026-05-03 22:01 16.02540 -59.97496 40051 ft 503 kts 226°
2026-05-03 22:01 15.97185 -60.02194 40051 ft 506 kts 218°
2026-05-03 22:02 15.91410 -60.06390 40049 ft 507 kts 217°
2026-05-03 22:02 15.85603 -60.10553 40049 ft 507 kts 217°
2026-05-03 22:03 15.79820 -60.14745 40049 ft 507 kts 218°
2026-05-03 22:03 15.74050 -60.18956 40049 ft 507 kts 218°
2026-05-03 22:04 15.68280 -60.23171 40044 ft 507 kts 218°
2026-05-03 22:04 15.62502 -60.27385 40040 ft 507 kts 218°
2026-05-03 22:05 15.56727 -60.31594 40047 ft 507 kts 218°
2026-05-03 22:05 15.50951 -60.35801 40050 ft 508 kts 218°
2026-05-03 22:06 15.45169 -60.40008 40044 ft 508 kts 218°
2026-05-03 22:06 15.39384 -60.44214 40039 ft 508 kts 218°
2026-05-03 22:07 15.33602 -60.48415 40041 ft 507 kts 218°
2026-05-03 22:07 15.27821 -60.52612 40043 ft 507 kts 218°
2026-05-03 22:08 15.22054 -60.56797 40034 ft 506 kts 218°
2026-05-03 22:08 15.16289 -60.60977 40036 ft 505 kts 218°
2026-05-03 22:09 15.10529 -60.65151 40034 ft 505 kts 218°
2026-05-03 22:10 15.01906 -60.71394 40031 ft 504 kts 218°
2026-05-03 22:10 14.96209 -60.75515 40014 ft 499 kts 218°
2026-05-03 22:10 14.93399 -60.77544 39849 ft 486 kts 218°
2026-05-03 22:11 14.90652 -60.79527 39296 ft 482 kts 218°
2026-05-03 22:11 14.87900 -60.81517 38595 ft 482 kts 218°
2026-05-03 22:11 14.85159 -60.83499 37805 ft 481 kts 218°
2026-05-03 22:11 14.82421 -60.85478 37057 ft 481 kts 218°
2026-05-03 22:12 14.79677 -60.87461 36324 ft 480 kts 217°
2026-05-03 22:12 14.76943 -60.89434 35620 ft 480 kts 217°
2026-05-03 22:12 14.74205 -60.91410 34883 ft 480 kts 217°
2026-05-03 22:12 14.71462 -60.93389 34113 ft 482 kts 217°
2026-05-03 22:13 14.68710 -60.95375 33272 ft 483 kts 217°
2026-05-03 22:13 14.65955 -60.97361 32419 ft 483 kts 217°
2026-05-03 22:13 14.63201 -60.99344 31608 ft 483 kts 216°
2026-05-03 22:13 14.60366 -61.01219 30794 ft 484 kts 211°
2026-05-03 22:14 14.57394 -61.02792 29866 ft 471 kts 206°
2026-05-03 22:14 14.54422 -61.03993 28873 ft 448 kts 199°
2026-05-03 22:14 14.52491 -61.04632 28256 ft 434 kts 199°
2026-05-03 22:14 14.49681 -61.05564 27387 ft 415 kts 199°
2026-05-03 22:15 14.46988 -61.06466 26578 ft 399 kts 199°
2026-05-03 22:15 14.44399 -61.07343 25820 ft 385 kts 199°
2026-05-03 22:15 14.41894 -61.08193 25107 ft 372 kts 198°
2026-05-03 22:15 14.39375 -61.08636 24340 ft 367 kts 178°
2026-05-03 22:16 14.36849 -61.08241 23704 ft 374 kts 165°
2026-05-03 22:16 14.34354 -61.07349 22989 ft 383 kts 157°
2026-05-03 22:16 14.31923 -61.06245 22455 ft 375 kts 155°
2026-05-03 22:16 14.29585 -61.05142 21520 ft 365 kts 155°
2026-05-03 22:17 14.27293 -61.04065 20505 ft 360 kts 155°
2026-05-03 22:17 14.25024 -61.03019 19511 ft 356 kts 155°
2026-05-03 22:17 14.22774 -61.01993 18575 ft 350 kts 155°
2026-05-03 22:17 14.20561 -61.01026 17741 ft 340 kts 161°
2026-05-03 22:18 14.18262 -61.00718 16889 ft 332 kts 183°
2026-05-03 22:18 14.16029 -61.01237 16022 ft 327 kts 200°
2026-05-03 22:18 14.13953 -61.02172 15053 ft 326 kts 203°
2026-05-03 22:18 14.11909 -61.03158 14163 ft 323 kts 203°
2026-05-03 22:19 14.09890 -61.04132 13268 ft 318 kts 202°
2026-05-03 22:19 14.07903 -61.05079 12371 ft 313 kts 201°
2026-05-03 22:19 14.05936 -61.06004 11510 ft 308 kts 201°
2026-05-03 22:19 14.03993 -61.06910 10686 ft 304 kts 201°
2026-05-03 22:20 14.02080 -61.07799 9862 ft 300 kts 201°
2026-05-03 22:20 14.00187 -61.08676 8999 ft 296 kts 201°
2026-05-03 22:20 13.98386 -61.09676 8172 ft 293 kts 211°
2026-05-03 22:20 13.96755 -61.10912 7457 ft 291 kts 215°
2026-05-03 22:21 13.95166 -61.12196 7136 ft 289 kts 215°
2026-05-03 22:21 13.93610 -61.13447 6833 ft 287 kts 215°
2026-05-03 22:21 13.92031 -61.14696 6527 ft 285 kts 214°
2026-05-03 22:21 13.90437 -61.15942 6207 ft 283 kts 214°
2026-05-03 22:22 13.88888 -61.17139 5903 ft 281 kts 214°
2026-05-03 22:22 13.87333 -61.18337 5605 ft 279 kts 213°
2026-05-03 22:22 13.85783 -61.19529 5317 ft 276 kts 213°
2026-05-03 22:22 13.84249 -61.20697 5028 ft 270 kts 210°
2026-05-03 22:23 13.82559 -61.21378 4732 ft 258 kts 182°
2026-05-03 22:23 13.80792 -61.21406 4471 ft 255 kts 176°
2026-05-03 22:23 13.79006 -61.21392 4194 ft 259 kts 176°
2026-05-03 22:23 13.77213 -61.21389 4048 ft 249 kts 176°
2026-05-03 22:24 13.75605 -61.21220 3973 ft 214 kts 154°
2026-05-03 22:24 13.74457 -61.20416 3678 ft 195 kts 127°
2026-05-03 22:24 13.73748 -61.19323 3517 ft 176 kts 116°
2026-05-03 22:24 13.73345 -61.18179 3417 ft 172 kts 97°
2026-05-03 22:25 13.73302 -61.16962 3322 ft 167 kts 91°
2026-05-03 22:25 13.73306 -61.15784 3236 ft 164 kts 90°
2026-05-03 22:25 13.73311 -61.14585 3182 ft 171 kts 90°
2026-05-03 22:25 13.73318 -61.13364 3091 ft 171 kts 90°
2026-05-03 22:26 13.73324 -61.12129 2879 ft 173 kts 90°
2026-05-03 22:26 13.73328 -61.10907 2707 ft 170 kts 91°
2026-05-03 22:26 13.73331 -61.09692 2474 ft 168 kts 90°
2026-05-03 22:26 13.73332 -61.08514 2273 ft 162 kts 90°
2026-05-03 22:27 13.73333 -61.07355 2074 ft 164 kts 91°
2026-05-03 22:27 13.73334 -61.06166 1856 ft 166 kts 91°
2026-05-03 22:27 13.73335 -61.04995 1630 ft 159 kts 90°
2026-05-03 22:27 13.73336 -61.03886 1416 ft 150 kts 90°
2026-05-03 22:28 13.73336 -61.02853 1241 ft 137 kts 90°
2026-05-03 22:28 13.73336 -61.01917 1057 ft 126 kts 89°
2026-05-03 22:28 13.73337 -61.01012 895 ft 128 kts 89°
2026-05-03 22:28 13.73341 -61.00108 735 ft 125 kts 92°
2026-05-03 22:29 13.73340 -60.99231 573 ft 121 kts 92°
2026-05-03 22:29 13.73355 -60.98392 383 ft 115 kts 92°
2026-05-03 22:29 13.73340 -60.97561 278 ft 115 kts 90°
2026-05-03 22:29 13.73345 -60.96731 97 ft 118 kts 91°
2026-05-03 22:30 13.73344 -60.95922 51 ft 101 kts 89°
2026-05-03 22:30 13.73343 -60.95323 50 ft 66 kts 91°
2026-05-03 22:30 13.73342 -60.94967 47 ft 40 kts 90°
2026-05-03 22:30 13.73340 -60.94720 47 ft 22 kts 89°
2026-05-03 22:31 13.73347 -60.94576 47 ft 15 kts 64°
2026-05-03 22:31 13.73401 -60.94559 47 ft 8 kts 346°
2026-05-03 22:31 13.73450 -60.94578 45 ft 8 kts 333°
2026-05-03 22:31 13.73492 -60.94611 47 ft 8 kts 319°
2026-05-03 22:32 13.73532 -60.94647 47 ft 8 kts 318°
2026-05-03 22:32 13.73565 -60.94688 46 ft 8 kts 294°
2026-05-03 22:32 13.73567 -60.94742 46 ft 8 kts 268°
2026-05-03 22:32 13.73564 -60.94796 46 ft 8 kts 266°
2026-05-03 22:33 13.73569 -60.94849 46 ft 8 kts 300°
2026-05-03 22:33 13.73612 -60.94858 45 ft 7 kts
2026-05-03 22:33 13.73643 -60.94857 44 ft 2 kts
2026-05-03 22:33 13.73646 -60.94857 44 ft 0 kts